Hourly Data Report for May 13, 2021

OTTAWA INTL A
ONTARIO
Current Station Operator: NAVCAN

45°19'00.000" N
75°40'00.000" W
114.90 m
6106001
71628
YOW

Download Data

Hourly Data (May 2021)
Hourly Data Report for May 13, 2021
TIME
LST
Temp Definition
°C
Dew Point Definition
°C
Rel Hum Definition
%
Precip. Amount Definition
mm

Wind Dir Definition
10's deg

Wind Spd Definition
km/h
Visibility Definition
km
Stn Press Definition
kPa
Hmdx Definition


Wind Chill Definition


Weather Definition


00:00 6.9 -2.9 50   28 7 24.1 100.88     LegendNANA
01:00 6.8 -1.8 54   28 9 24.1 100.90     Clear
02:00 6.5 -0.9 59   29 12 24.1 100.90     LegendNANA
03:00 5.1 -0.4 67   30 13 24.1 100.92     LegendNANA
04:00 4.5 0.5 75   31 13 24.1 100.93     Mainly Clear
05:00 5.0 1.7 79   28 4 24.1 100.95     LegendNANA
06:00 7.6 3.6 75   30 8 24.1 101.00     LegendNANA
07:00 10.6 2.5 57   31 7 24.1 101.05     Clear
08:00 14.2 2.3 44   33 8 24.1 101.08     LegendNANA
09:00 16.1 1.8 38   28 9 24.1 101.06     LegendNANA
10:00 17.9 -1.0 27   4 11 24.1 101.05     Clear
11:00 18.4 0.2 29   33 8 24.1 101.03     LegendNANA
12:00 19.4 -1.4 24   26 10 24.1 100.95     LegendNANA
13:00 20.3 0.2 26   31 13 24.1 100.90     Mainly Clear
14:00 20.9 -0.2 24   26 16 24.1 100.84     LegendNANA
15:00 20.3 -0.5 24   30 12 24.1 100.75     LegendNANA
16:00 21.2 1.9 28   26 19 24.1 100.70     Mainly Clear
17:00 20.7 0.8 26   28 20 24.1 100.68     LegendNANA
18:00 19.9 0.6 27   27 18 24.1 100.67     LegendNANA
19:00 18.5 0.6 30   35 24 24.1 100.72     Mostly Cloudy
20:00 15.7 1.9 39   1 9 24.1 100.74     LegendNANA
21:00 13.1 3.3 51   21 5 24.1 100.77     LegendNANA
22:00 13.7 3.4 50   19 8 24.1 100.79     Mostly Cloudy
23:00 13.2 3.8 53   19 4 24.1 100.79     LegendNANA

Notes on Data Quality.

Legend

  • E = Estimated
  • M = Missing
  • NA = Not Available*
  • [empty] = Indicates an unobserved value
Date modified: